Time,TemperatureF,DewpointF,PressureIn,WindDirection,WindDirectionDegrees,WindSpeedMPH,WindSpeedGustMPH,Humidity,HourlyPrecipIn,Conditions,Clouds,dailyrainin,SoftwareType,DateUTC
2013-01-16 00:02:00,35.0,12.0,30.32,North,5,10.0,14.0,38,0.00,,,0.00,,2013-01-16 08:02:00,
2013-01-16 00:11:00,35.0,12.0,30.32,North,5,10.0,14.0,38,0.00,,,0.00,,2013-01-16 08:11:00,
2013-01-16 00:22:00,36.0,12.0,30.32,NNE,14,11.0,14.0,37,0.00,,,0.00,,2013-01-16 08:22:00,
2013-01-16 00:32:00,35.0,12.0,30.32,North,11,12.0,17.0,38,0.00,,,0.00,,2013-01-16 08:32:00,
2013-01-16 00:42:00,35.0,12.0,30.32,North,11,12.0,17.0,38,0.00,,,0.00,,2013-01-16 08:42:00,
2013-01-16 00:52:00,36.0,12.0,30.34,North,5,13.0,18.0,36,0.00,,,0.00,,2013-01-16 08:52:00,
2013-01-16 01:02:00,36.0,12.0,30.32,NNE,15,14.0,19.0,36,0.00,,,0.00,,2013-01-16 09:02:00,
2013-01-16 01:11:00,36.0,12.0,30.32,NNE,15,14.0,19.0,36,0.00,,,0.00,,2013-01-16 09:11:00,
2013-01-16 01:22:00,35.0,11.0,30.32,NNE,13,14.0,18.0,37,0.00,,,0.00,,2013-01-16 09:22:00,
2013-01-16 01:32:00,35.0,11.0,30.32,North,11,12.0,18.0,37,0.00,,,0.00,,2013-01-16 09:32:00,
2013-01-16 01:42:00,35.0,11.0,30.32,North,11,12.0,18.0,37,0.00,,,0.00,,2013-01-16 09:42:00,
2013-01-16 01:52:00,34.0,11.0,30.32,North,5,12.0,16.0,38,0.00,,,0.00,,2013-01-16 09:52:00,
2013-01-16 02:02:00,34.0,12.0,30.32,North,355,8.0,13.0,39,0.00,,,0.00,,2013-01-16 10:02:00,
2013-01-16 02:11:00,34.0,12.0,30.32,North,355,8.0,13.0,39,0.00,,,0.00,,2013-01-16 10:11:00,
2013-01-16 02:22:00,34.0,12.0,30.33,NNE,12,8.0,11.0,40,0.00,,,0.00,,2013-01-16 10:22:00,
2013-01-16 02:32:00,34.0,13.0,30.33,NNE,17,9.0,13.0,41,0.00,,,0.00,,2013-01-16 10:32:00,
2013-01-16 02:42:00,34.0,13.0,30.33,NNE,17,9.0,13.0,41,0.00,,,0.00,,2013-01-16 10:42:00,
2013-01-16 02:52:00,34.0,12.0,30.32,NNE,22,12.0,18.0,40,0.00,,,0.00,,2013-01-16 10:52:00,
2013-01-16 03:02:00,34.0,12.0,30.33,NNE,13,9.0,15.0,40,0.00,,,0.00,,2013-01-16 11:02:00,
2013-01-16 03:11:00,34.0,12.0,30.33,NNE,13,9.0,15.0,40,0.00,,,0.00,,2013-01-16 11:11:00,
2013-01-16 03:22:00,34.0,13.0,30.32,North,5,10.0,16.0,42,0.00,,,0.00,,2013-01-16 11:22:00,
2013-01-16 03:32:00,34.0,13.0,30.33,North,5,11.0,13.0,42,0.00,,,0.00,,2013-01-16 11:32:00,
2013-01-16 03:42:00,34.0,13.0,30.33,North,5,11.0,13.0,42,0.00,,,0.00,,2013-01-16 11:42:00,
2013-01-16 03:52:00,33.0,12.0,30.30,NNE,13,11.0,13.0,42,0.00,,,0.00,,2013-01-16 11:52:00,
2013-01-16 04:02:00,33.0,12.0,30.30,NNE,17,10.0,14.0,42,0.00,,,0.00,,2013-01-16 12:02:00,
2013-01-16 04:12:00,33.0,12.0,30.30,NNE,17,10.0,14.0,42,0.00,,,0.00,,2013-01-16 12:12:00,
2013-01-16 04:22:00,33.0,11.0,30.30,NNE,12,10.0,13.0,40,0.00,,,0.00,,2013-01-16 12:22:00,
2013-01-16 04:32:00,33.0,11.0,30.30,North,360,8.0,12.0,40,0.00,,,0.00,,2013-01-16 12:32:00,
2013-01-16 04:42:00,33.0,11.0,30.30,North,360,8.0,12.0,40,0.00,,,0.00,,2013-01-16 12:42:00,
2013-01-16 04:53:00,32.0,11.0,30.32,NNE,15,9.0,12.0,41,0.00,,,0.00,,2013-01-16 12:53:00,
2013-01-16 05:02:00,33.0,12.0,30.32,NNE,23,10.0,13.0,41,0.00,,,0.00,,2013-01-16 13:02:00,
2013-01-16 05:12:00,33.0,12.0,30.32,NNE,23,10.0,13.0,41,0.00,,,0.00,,2013-01-16 13:12:00,
2013-01-16 05:22:00,33.0,12.0,30.31,North,9,10.0,13.0,41,0.00,,,0.00,,2013-01-16 13:22:00,
2013-01-16 05:32:00,33.0,11.0,30.32,North,9,11.0,15.0,40,0.00,,,0.00,,2013-01-16 13:32:00,
2013-01-16 05:42:00,33.0,11.0,30.32,North,9,11.0,15.0,40,0.00,,,0.00,,2013-01-16 13:42:00,
2013-01-16 05:52:00,33.0,12.0,30.32,North,5,11.0,15.0,41,0.00,,,0.00,,2013-01-16 13:52:00,
2013-01-16 06:02:00,33.0,13.0,30.32,North,5,10.0,13.0,43,0.00,,,0.00,,2013-01-16 14:02:00,
2013-01-16 06:11:00,33.0,13.0,30.32,North,5,10.0,13.0,43,0.00,,,0.00,,2013-01-16 14:11:00,
2013-01-16 06:22:00,34.0,14.0,30.32,North,5,10.0,15.0,43,0.00,,,0.00,,2013-01-16 14:22:00,
2013-01-16 06:32:00,34.0,14.0,30.33,North,9,10.0,14.0,43,0.00,,,0.00,,2013-01-16 14:32:00,
2013-01-16 06:42:00,34.0,14.0,30.33,North,9,10.0,14.0,43,0.00,,,0.00,,2013-01-16 14:42:00,
2013-01-16 06:53:00,33.0,12.0,30.33,North,11,10.0,13.0,42,0.00,,,0.00,,2013-01-16 14:53:00,
2013-01-16 07:02:00,33.0,12.0,30.34,NNE,29,11.0,16.0,42,0.00,,,0.00,,2013-01-16 15:02:00,
2013-01-16 07:11:00,33.0,12.0,30.34,NNE,29,11.0,16.0,42,0.00,,,0.00,,2013-01-16 15:11:00,
2013-01-16 07:22:00,32.0,12.0,30.34,NNE,22,9.0,15.0,43,0.00,,,0.00,,2013-01-16 15:22:00,
2013-01-16 07:32:00,32.0,12.0,30.34,North,9,12.0,14.0,43,0.00,,,0.00,,2013-01-16 15:32:00,
2013-01-16 07:42:00,32.0,12.0,30.34,North,9,12.0,14.0,43,0.00,,,0.00,,2013-01-16 15:42:00,
2013-01-16 07:53:00,33.0,12.0,30.35,North,9,11.0,16.0,42,0.00,,,0.00,,2013-01-16 15:53:00,
2013-01-16 08:02:00,34.0,14.0,30.35,NNE,18,13.0,15.0,43,0.00,,,0.00,,2013-01-16 16:02:00,
2013-01-16 08:11:00,34.0,14.0,30.35,NNE,18,13.0,15.0,43,0.00,,,0.00,,2013-01-16 16:11:00,
2013-01-16 08:22:00,35.0,13.0,30.35,NNE,14,13.0,17.0,40,0.00,,,0.00,,2013-01-16 16:22:00,
2013-01-16 08:32:00,37.0,13.0,30.35,North,5,11.0,17.0,37,0.00,,,0.00,,2013-01-16 16:32:00,
2013-01-16 08:42:00,37.0,13.0,30.35,North,5,11.0,17.0,37,0.00,,,0.00,,2013-01-16 16:42:00,
2013-01-16 08:52:00,37.0,13.0,30.34,NNE,28,12.0,17.0,36,0.00,,,0.00,,2013-01-16 16:52:00,
2013-01-16 09:02:00,38.0,13.0,30.35,North,9,12.0,19.0,35,0.00,,,0.00,,2013-01-16 17:02:00,
2013-01-16 09:12:00,38.0,13.0,30.35,North,9,12.0,19.0,35,0.00,,,0.00,,2013-01-16 17:12:00,
2013-01-16 09:22:00,38.0,12.0,30.35,NE,46,15.0,21.0,34,0.00,,,0.00,,2013-01-16 17:22:00,
2013-01-16 09:32:00,39.0,12.0,30.34,North,9,16.0,20.0,33,0.00,,,0.00,,2013-01-16 17:32:00,
2013-01-16 09:43:00,39.0,12.0,30.34,North,9,16.0,20.0,33,0.00,,,0.00,,2013-01-16 17:43:00,
2013-01-16 09:53:00,39.0,12.0,30.36,North,5,15.0,20.0,33,0.00,,,0.00,,2013-01-16 17:53:00,
2013-01-16 10:02:00,40.0,13.0,30.36,North,355,12.0,19.0,32,0.00,,,0.00,,2013-01-16 18:02:00,
2013-01-16 10:12:00,40.0,13.0,30.36,North,355,12.0,19.0,32,0.00,,,0.00,,2013-01-16 18:12:00,
2013-01-16 10:22:00,41.0,13.0,30.35,NNE,25,11.0,20.0,31,0.00,,,0.00,,2013-01-16 18:22:00,
2013-01-16 10:33:00,42.0,13.0,30.35,North,360,14.0,19.0,30,0.00,,,0.00,,2013-01-16 18:33:00,
2013-01-16 10:42:00,42.0,13.0,30.35,North,360,14.0,19.0,30,0.00,,,0.00,,2013-01-16 18:42:00,
2013-01-16 10:53:00,42.0,13.0,30.36,NNW,336,11.0,19.0,30,0.00,,,0.00,,2013-01-16 18:53:00,
2013-01-16 11:02:00,43.0,13.0,30.35,NE,35,11.0,16.0,29,0.00,,,0.00,,2013-01-16 19:02:00,
2013-01-16 11:12:00,43.0,13.0,30.35,NE,35,11.0,16.0,29,0.00,,,0.00,,2013-01-16 19:12:00,
2013-01-16 11:22:00,43.0,13.0,30.35,North,5,15.0,21.0,29,0.00,,,0.00,,2013-01-16 19:22:00,
2013-01-16 11:32:00,44.0,13.0,30.33,NNE,30,12.0,22.0,28,0.00,,,0.00,,2013-01-16 19:32:00,
2013-01-16 11:42:00,44.0,13.0,30.33,NNE,30,12.0,22.0,28,0.00,,,0.00,,2013-01-16 19:42:00,
2013-01-16 11:52:00,45.0,15.0,30.31,NE,42,11.0,23.0,29,0.00,,,0.00,,2013-01-16 19:52:00,
2013-01-16 12:02:00,47.0,16.0,30.30,NE,37,15.0,27.0,29,0.00,,,0.00,,2013-01-16 20:02:00,
2013-01-16 12:11:00,47.0,16.0,30.30,NE,37,15.0,27.0,29,0.00,,,0.00,,2013-01-16 20:11:00,
2013-01-16 12:22:00,48.0,17.0,30.31,NNE,28,13.0,22.0,29,0.00,,,0.00,,2013-01-16 20:22:00,
2013-01-16 12:32:00,49.0,17.0,30.31,NNE,26,10.0,23.0,28,0.00,,,0.00,,2013-01-16 20:32:00,
2013-01-16 12:42:00,49.0,17.0,30.31,NNE,26,10.0,23.0,28,0.00,,,0.00,,2013-01-16 20:42:00,
2013-01-16 12:53:00,49.0,17.0,30.29,NNE,23,8.0,21.0,28,0.00,,,0.00,,2013-01-16 20:53:00,
2013-01-16 13:02:00,50.0,17.0,30.28,NNE,31,13.0,19.0,27,0.00,,,0.00,,2013-01-16 21:02:00,
2013-01-16 13:12:00,50.0,17.0,30.28,NNE,31,13.0,19.0,27,0.00,,,0.00,,2013-01-16 21:12:00,
2013-01-16 13:22:00,50.0,17.0,30.27,ENE,57,9.0,23.0,27,0.00,,,0.00,,2013-01-16 21:22:00,
2013-01-16 13:32:00,50.0,18.0,30.27,ENE,67,11.0,22.0,28,0.00,,,0.00,,2013-01-16 21:32:00,
2013-01-16 13:42:00,50.0,18.0,30.27,ENE,67,11.0,22.0,28,0.00,,,0.00,,2013-01-16 21:42:00,
2013-01-16 13:52:00,50.0,18.0,30.27,North,360,10.0,19.0,28,0.00,,,0.00,,2013-01-16 21:52:00,
2013-01-16 14:02:00,50.0,17.0,30.27,NNE,25,11.0,21.0,27,0.00,,,0.00,,2013-01-16 22:02:00,
2013-01-16 14:11:00,50.0,17.0,30.27,NNE,25,11.0,21.0,27,0.00,,,0.00,,2013-01-16 22:11:00,
2013-01-16 14:22:00,50.0,17.0,30.26,NNE,30,16.0,20.0,27,0.00,,,0.00,,2013-01-16 22:22:00,
2013-01-16 14:32:00,50.0,17.0,30.26,NNE,18,11.0,21.0,27,0.00,,,0.00,,2013-01-16 22:32:00,
2013-01-16 14:42:00,50.0,17.0,30.26,NNE,18,11.0,21.0,27,0.00,,,0.00,,2013-01-16 22:42:00,
2013-01-16 14:52:00,50.0,17.0,30.25,NE,49,13.0,19.0,27,0.00,,,0.00,,2013-01-16 22:52:00,
2013-01-16 15:02:00,50.0,17.0,30.25,NNE,31,12.0,17.0,27,0.00,,,0.00,,2013-01-16 23:02:00,
2013-01-16 15:12:00,50.0,17.0,30.25,NNE,30,12.0,18.0,27,0.00,,,0.00,,2013-01-16 23:12:00,
2013-01-16 15:22:00,50.0,17.0,30.25,NNE,30,12.0,18.0,27,0.00,,,0.00,,2013-01-16 23:22:00,
2013-01-16 15:32:00,50.0,17.0,30.25,NNE,24,9.0,19.0,27,0.00,,,0.00,,2013-01-16 23:32:00,
2013-01-16 15:42:00,50.0,17.0,30.25,NNE,24,9.0,19.0,27,0.00,,,0.00,,2013-01-16 23:42:00,
2013-01-16 15:53:00,50.0,16.0,30.26,NE,42,11.0,20.0,26,0.00,,,0.00,,2013-01-16 23:53:00,
2013-01-16 16:02:00,50.0,17.0,30.26,NNE,16,10.0,18.0,27,0.00,,,0.00,,2013-01-17 00:02:00,
2013-01-16 16:11:00,50.0,17.0,30.26,NNE,16,10.0,18.0,27,0.00,,,0.00,,2013-01-17 00:11:00,
2013-01-16 16:22:00,50.0,17.0,30.26,North,360,13.0,18.0,27,0.00,,,0.00,,2013-01-17 00:22:00,
2013-01-16 16:32:00,49.0,16.0,30.26,NE,35,12.0,17.0,27,0.00,,,0.00,,2013-01-17 00:32:00,
2013-01-16 16:42:00,49.0,16.0,30.26,NE,35,12.0,17.0,27,0.00,,,0.00,,2013-01-17 00:42:00,
2013-01-16 16:52:00,49.0,16.0,30.27,NNE,28,10.0,17.0,27,0.00,,,0.00,,2013-01-17 00:52:00,
2013-01-16 17:02:00,48.0,16.0,30.25,NNE,29,8.0,17.0,27,0.00,,,0.00,,2013-01-17 01:02:00,
2013-01-16 17:11:00,48.0,16.0,30.25,NNE,29,8.0,17.0,27,0.00,,,0.00,,2013-01-17 01:11:00,
2013-01-16 17:22:00,47.0,16.0,30.25,NNE,33,10.0,15.0,28,0.00,,,0.00,,2013-01-17 01:22:00,
2013-01-16 17:32:00,46.0,15.0,30.26,NNE,19,11.0,15.0,28,0.00,,,0.00,,2013-01-17 01:32:00,
2013-01-16 17:42:00,46.0,15.0,30.26,NNE,19,11.0,15.0,28,0.00,,,0.00,,2013-01-17 01:42:00,
2013-01-16 17:52:00,46.0,15.0,30.26,NE,38,9.0,14.0,28,0.00,,,0.00,,2013-01-17 01:52:00,
2013-01-16 18:02:00,46.0,16.0,30.26,NNE,24,6.0,12.0,29,0.00,,,0.00,,2013-01-17 02:02:00,
2013-01-16 18:12:00,46.0,16.0,30.26,NNE,24,6.0,12.0,29,0.00,,,0.00,,2013-01-17 02:12:00,
2013-01-16 18:22:00,45.0,15.0,30.27,NNE,14,6.0,10.0,29,0.00,,,0.00,,2013-01-17 02:22:00,
2013-01-16 18:32:00,44.0,15.0,30.27,North,11,5.0,9.0,30,0.00,,,0.00,,2013-01-17 02:32:00,
2013-01-16 18:42:00,44.0,15.0,30.27,North,11,5.0,9.0,30,0.00,,,0.00,,2013-01-17 02:42:00,
2013-01-16 18:52:00,44.0,15.0,30.27,North,11,5.0,9.0,30,0.00,,,0.00,,2013-01-17 02:52:00,
2013-01-16 19:02:00,43.0,15.0,30.29,North,5,5.0,7.0,32,0.00,,,0.00,,2013-01-17 03:02:00,
2013-01-16 19:11:00,43.0,15.0,30.29,North,5,5.0,7.0,32,0.00,,,0.00,,2013-01-17 03:11:00,
2013-01-16 19:22:00,43.0,15.0,30.27,NNE,13,6.0,7.0,32,0.00,,,0.00,,2013-01-17 03:22:00,
2013-01-16 19:32:00,43.0,15.0,30.27,North,10,4.0,6.0,32,0.00,,,0.00,,2013-01-17 03:32:00,
2013-01-16 19:42:00,43.0,15.0,30.27,North,10,4.0,6.0,32,0.00,,,0.00,,2013-01-17 03:42:00,
2013-01-16 19:52:00,42.0,15.0,30.28,North,10,4.0,6.0,33,0.00,,,0.00,,2013-01-17 03:52:00,
2013-01-16 20:02:00,42.0,15.0,30.27,North,360,6.0,9.0,33,0.00,,,0.00,,2013-01-17 04:02:00,
2013-01-16 20:12:00,42.0,15.0,30.27,NNE,13,6.0,9.0,33,0.00,,,0.00,,2013-01-17 04:12:00,
2013-01-16 20:22:00,42.0,15.0,30.27,NNE,13,6.0,9.0,33,0.00,,,0.00,,2013-01-17 04:22:00,
2013-01-16 20:32:00,42.0,15.0,30.27,North,9,9.0,11.0,33,0.00,,,0.00,,2013-01-17 04:32:00,
2013-01-16 20:42:00,42.0,15.0,30.27,North,9,9.0,11.0,33,0.00,,,0.00,,2013-01-17 04:42:00,
2013-01-16 20:52:00,43.0,15.0,30.27,NNE,15,9.0,14.0,32,0.00,,,0.00,,2013-01-17 04:52:00,
2013-01-16 21:03:00,43.0,15.0,30.27,North,360,11.0,14.0,32,0.00,,,0.00,,2013-01-17 05:03:00,
2013-01-16 21:12:00,43.0,15.0,30.27,North,360,11.0,14.0,32,0.00,,,0.00,,2013-01-17 05:12:00,
2013-01-16 21:22:00,44.0,15.0,30.27,NNE,15,13.0,17.0,31,0.00,,,0.00,,2013-01-17 05:22:00,
2013-01-16 21:32:00,44.0,14.0,30.26,NNE,28,15.0,19.0,29,0.00,,,0.00,,2013-01-17 05:32:00,
2013-01-16 21:42:00,44.0,14.0,30.26,NNE,28,15.0,19.0,29,0.00,,,0.00,,2013-01-17 05:42:00,
2013-01-16 21:52:00,44.0,14.0,30.25,NNE,12,12.0,19.0,29,0.00,,,0.00,,2013-01-17 05:52:00,
2013-01-16 22:02:00,43.0,14.0,30.25,NNE,19,10.0,17.0,30,0.00,,,0.00,,2013-01-17 06:02:00,
2013-01-16 22:11:00,43.0,14.0,30.25,NE,46,10.0,18.0,31,0.00,,,0.00,,2013-01-17 06:11:00,
2013-01-16 22:22:00,43.0,14.0,30.25,NE,46,10.0,18.0,31,0.00,,,0.00,,2013-01-17 06:22:00,
2013-01-16 22:32:00,42.0,14.0,30.26,NNE,22,11.0,16.0,32,0.00,,,0.00,,2013-01-17 06:32:00,
2013-01-16 22:42:00,42.0,14.0,30.26,NNE,22,11.0,16.0,32,0.00,,,0.00,,2013-01-17 06:42:00,
2013-01-16 22:52:00,41.0,14.0,30.24,NE,37,11.0,15.0,33,0.00,,,0.00,,2013-01-17 06:52:00,
2013-01-16 23:02:00,41.0,14.0,30.24,NNE,23,9.0,16.0,33,0.00,,,0.00,,2013-01-17 07:02:00,
2013-01-16 23:11:00,41.0,14.0,30.24,NNE,23,9.0,16.0,33,0.00,,,0.00,,2013-01-17 07:11:00,
2013-01-16 23:22:00,42.0,14.0,30.24,NNE,26,11.0,21.0,32,0.00,,,0.00,,2013-01-17 07:22:00,
2013-01-16 23:32:00,42.0,14.0,30.23,North,360,12.0,20.0,32,0.00,,,0.00,,2013-01-17 07:32:00,
2013-01-16 23:42:00,42.0,14.0,30.23,North,360,12.0,20.0,32,0.00,,,0.00,,2013-01-17 07:42:00,
2013-01-16 23:52:00,41.0,14.0,30.24,NE,49,12.0,20.0,33,0.00,,,0.00,,2013-01-17 07:52:00,